ZIYUAN 3-1 (ZY 3-1)

Last updated on Wed Jul 16 2025 00:02:30 GMT+0000 (Coordinated Universal Time)

1 38046U 12001A 25196.60816601 .00017554 00000+0 27235-3 0 9999 2 38046 97.1962 261.3578 0004658 139.2671 220.8932 15.54037943751573
UTC large
Height (km)
Speed (km/s)
/
Latitude / Longitude
Inclination (degrees)
Orbital Period (minutes)
Azimuth
Elevation
Range (km)
Doppler Factor

Next 0 passes for location: London (51.5072 / 0.1276)

Sorry there are no passes over London.